Home > Weather > Scheibbs > Past weeks

Flag for Austria Past Weather in Scheibbs, Lower Austria, Austria — Yesterday and Last 2 Weeks

Now
70 °F

Mild.


Feels Like: 67 °F
Forecast: 60 / 87 °F
Wind: 1 mph from Southeast

Location: Amstetten

Current Time: Jul 30, 2016 at 10:54:26 PM

Latest Report: Jul 30, 2016 at 10:00 PM


Visibility: N/A

Pressure: 29.91 "Hg

Humidity: 90%

Dew Point: 67 °F

Location of ScheibbsLocation

Past Weather in Scheibbs — Graph

°F

Scheibbs Temperature Yesterday

Maximum temperature yesterday: 80 °F (at 5:00 PM)
Minimum temperature yesterday: 60 °F (at 5:00 AM)
Average temperature yesterday: 71 °F

High & Low Weather Summary for the Past Weeks

 TemperatureHumidityPressure
High86 °F (Jul 30, 6:00 PM)100% (Jul 18, 6:00 AM)30.29 "Hg (Jul 18, 6:00 AM)
Low55 °F (Jul 16, 5:00 AM)40% (Jul 19, 5:00 PM)29.87 "Hg (Jul 30, 7:00 PM)
Average70 °F80%30.05 "Hg
* Reported Jul 15 9:00 PM — Jul 30 9:00 PM, Scheibbs, Weather by CustomWeather, © 2016

Note: Actual official high and low records may vary slightly from our data, if they occured in-between our weather recording intervals... More about our weather records

Advertising

Scheibbs Weather History for the Previous 24 Hours

Scroll right to see more
 ConditionsComfort  
Time TempWeatherWind HumidityBarometerVisibility
9:00 PM
Sat, Jul 30
76 °FMild.1 mph75%29.89 "HgN/A
8:00 PM80 °FWarm.1 mph72%29.88 "HgN/A
7:00 PM86 °FWarm.1 mph47%29.87 "HgN/A
6:00 PM86 °FWarm.1 mph46%29.88 "HgN/A
5:00 PM86 °FWarm.2 mph45%29.88 "HgN/A
4:00 PM86 °FWarm.2 mph44%29.89 "HgN/A
3:00 PM85 °FWarm.2 mph45%29.91 "HgN/A
2:00 PM84 °FWarm.No wind52%29.92 "HgN/A
1:00 PM81 °FWarm.1 mph55%29.94 "HgN/A
12:00 PM79 °FWarm.1 mph58%29.95 "HgN/A
11:00 AM78 °FWarm.1 mph63%29.96 "HgN/A
10:00 AM73 °FMild.1 mph70%29.98 "HgN/A
9:00 AM69 °FMild.1 mph80%29.99 "HgN/A
8:00 AM65 °FMild.No wind90%30.00 "HgN/A
7:00 AM61 °FCool.No wind98%30.00 "HgN/A
6:00 AM58 °FCool.No wind99%30.00 "HgN/A
5:00 AM60 °FCool.1 mph99%29.99 "HgN/A
4:00 AM60 °FCool.1 mph100%29.99 "HgN/A
3:00 AM61 °FCool.No wind99%29.99 "HgN/A
2:00 AM61 °FCool.No wind98%29.99 "HgN/A
1:00 AM62 °FCool.No wind97%29.99 "HgN/A
12:00 AM64 °FMild.1 mph95%29.99 "HgN/A
11:00 PM
Fri, Jul 29
66 °FMild.1 mph90%29.98 "HgN/A
10:00 PM68 °FMild.No wind86%29.97 "HgN/A
Weather by CustomWeather, © 2016

See weather overviewHow to use our weather pages